CW2971 Weather Reports


time (UTC)temp
F
wind
direction
speed
knots
gust
knots
rain 1hr
in
rain 24hr
in
rain mn
in
humidity
%
barometer
mb
20260504040032 49 113 0.0 3.5 0.00 0.00 0.00 76 1016.6
20260504034538 48 107 0.0 3.5 0.00 0.00 0.00 76 1016.7
20260504033037 48 224 0.0 2.6 0.00 0.00 0.00 75 1016.6
20260504031528 48 0 0.0 5.2 0.00 0.00 0.00 74 1016.6
20260504030028 48 178 0.9 3.5 0.00 0.00 0.00 73 1016.7
20260504024530 48 215 0.9 3.5 0.00 0.00 0.00 73 1016.7
20260504023029 48 134 0.9 4.3 0.00 0.00 0.00 73 1016.8
20260504021535 49 194 0.0 2.6 0.00 0.00 0.00 72 1016.7
20260504020028 49 0 0.0 0.9 0.00 0.00 0.00 71 1016.5
20260504014529 49 141 0.0 0.9 0.00 0.00 0.00 70 1016.4
20260504013035 50 0 0.0 2.6 0.00 0.00 0.00 68 1016.1
20260504011526 51 151 0.0 3.5 0.00 0.00 0.00 66 1015.7
20260504010028 51 103 0.0 2.6 0.00 0.00 0.00 66 1015.6
20260504004528 51 143 0.0 1.7 0.00 0.00 0.00 65 1015.4
20260504003030 53 0 0.0 0.0 0.00 0.00 0.00 64 1015.2
20260504001529 55 0 0.0 0.0 0.00 0.00 0.00 58 1014.9
20260504000028 56 0 0.0 0.0 0.00 0.00 0.00 50 1014.6
20260503234528 58 0 0.0 0.0 0.00 0.00 0.00 43 1014.5
20260503233028 60 0 0.0 0.0 0.00 0.00 0.00 38 1014.4
20260503231528 62 0 0.0 0.0 0.00 0.00 0.00 35 1014.3
20260503230028 63 290 1.7 4.3 0.00 0.00 0.00 33 1014.3
20260503224527 64 323 1.7 4.3 0.00 0.00 0.00 31 1014.3
20260503223029 64 274 0.9 4.3 0.00 0.00 0.00 32 1014.2
20260503221532 63 91 0.9 6.1 0.00 0.00 0.00 33 1014.1
20260503220030 63 280 1.7 7.8 0.00 0.00 0.00 31 1014.1
20260503214529 63 297 2.6 7.8 0.00 0.00 0.00 32 1014.1
20260503213035 63 1 3.5 6.1 0.00 0.00 0.00 32 1014.2
20260503211529 62 358 3.5 11.3 0.00 0.00 0.00 32 1014.2
20260503210028 63 282 3.5 7.8 0.00 0.00 0.00 30 1014.0
20260503204528 62 288 2.6 7.8 0.00 0.00 0.00 32 1014.0
20260503203034 61 258 3.5 9.6 0.00 0.00 0.00 32 1014.1
20260503201531 62 283 2.6 6.1 0.00 0.00 0.00 33 1014.3
20260503200033 62 297 4.3 8.7 0.00 0.00 0.00 34 1014.3
20260503194531 62 279 4.3 8.7 0.00 0.00 0.00 33 1014.3
20260503193033 61 303 4.3 7.8 0.00 0.00 0.00 35 1014.5
20260503191528 61 6 4.3 9.6 0.00 0.00 0.00 35 1014.9
20260503190028 60 269 2.6 9.6 0.00 0.00 0.00 38 1014.8
20260503184529 60 307 4.3 7.8 0.00 0.00 0.00 38 1015.0
20260503183035 59 321 5.2 9.6 0.00 0.00 0.00 38 1015.1
20260503181601 60 297 2.6 9.6 0.00 0.00 0.00 38 1015.1
20260503180029 59 279 2.6 10.4 0.00 0.00 0.00 39 1015.1
20260503174529 58 311 5.2 11.3 0.00 0.02 0.00 39 1015.3
20260503173042 58 308 3.5 11.3 0.00 0.02 0.00 39 1015.4
20260503171528 57 282 5.2 13.0 0.00 0.02 0.00 41 1015.6
20260503081527 50 330 0.0 0.9 0.00 0.09 0.00 70 1011.7
20260503071531 49 0 0.9 2.6 0.00 0.09 0.00 72 1011.1
20260503054527 51 0 0.0 1.7 0.00 0.09 0.00 64 1010.4
20260503053036 52 285 0.9 2.6 0.00 0.09 0.00 63 1010.7
20260503051530 53 0 0.0 4.3 0.00 0.09 0.00 62 1010.8
20260503050027 53 281 1.7 3.5 0.00 0.09 0.00 60 1010.7
20260503044559 54 309 2.6 5.2 0.00 0.09 0.00 62 1010.8
20260503043026 54 285 0.9 4.3 0.00 0.09 0.00 63 1010.7
20260503041528 54 315 0.9 3.5 0.00 0.09 0.00 64 1010.7